{"data":{"norad_id":61764,"intl_designator":"2024-199AF","name":"SIT-2086","alt_names":[],"object_type":"PAYLOAD","status":"ACTIVE","operator":null,"country":"CIS","launch_date":"2024-11-04","launch_site_code":"VOSTO","launch_vehicle":null,"mission":null,"orbit_class":"UNKNOWN","rcs_meters":null,"size_class":null,"mass_kg":null,"dimensions":null,"purposes":["comms"],"wikipedia_slug":null,"has_3d_model":false,"image_url":null,"decayed_at":null,"tle_current":{"epoch":"2026-09-19T21:33:16.095744Z","epoch_age_seconds":66496,"freshness":"FRESH","line1":"1 61764U 24199AF  26262.89810296  .00039048  00000+0  48251-3 0  9996","line2":"2 61764  97.2750 141.1530 0003010 267.4111  92.6801 15.60036423149164","mean_motion":15.60036423,"eccentricity":0.000301,"inclination_deg":97.275,"raan_deg":141.153,"arg_perigee_deg":267.4111,"mean_anomaly_deg":92.6801,"bstar":0.00048251,"rev_number":14916,"period_min":92.30553715091,"perigee_km":385.51529830495,"apogee_km":389.58824294487,"semimajor_km":6765.6887706249,"source":"CELESTRAK","updated_at":"2026-09-20T09:00:45.241130Z"}}}